sat.trackr.live / text

‹ back to catalog

ONEWEB-0189

NORAD 48217 · 2021-031H

PAYLOAD ACTIVE UNKNOWN

§ Identity

Operator
Country
UK
Launch date
2021-04-25
Launch site
VOSTO
Launch vehicle
Mass (kg)
RCS (m²)

Purposes: comms

External: N2YO · Heavens-Above · Gunter

§ Orbital elements

Epoch: 2026-09-20T00:07:47.407584Z

Period
109.55 min
Inclination
87.8904°
Eccentricity
0.0001569
Mean motion
13.14501929 rev/d
Perigee alt
1,204.6 km
Apogee alt
1,207.0 km
Semi-major
7,583.9 km
B*
4.4242e-4
RAAN
270.7891°
Arg perigee
87.4405°
Mean anomaly
272.6905°
Rev number
26,068

§ Raw data

ONEWEB-01891 48217U 21031H   26263.00540981  .00000177  00000+0  44242-3 0  99982 48217  87.8904 270.7891 0001569  87.4405 272.6905 13.14501929260681

JSON: /api/v1/satellites/48217 · /tle

For live sub-satellite position, see the globe view (requires WebGL).

§ Visibility from observer

Set your observer location to see the next 7 days of passes ≥ 10°. The values pass through the URL so the page stays shareable.

No JS? Fill the form by hand. The geolocation button needs JavaScript.